Content
SEND FEEDBACK

Daily
Averages
Monthly
Summary
United States of America

ANN ARBOR, MICHIGAN


Home > North America > United States > Michigan
Elevation: 231 meters     Latitude: 42 17N     Longitude: 083 43W

WEATHER
 
SELECT A DAY
Number of Records: 204,418;   Date Range: 1/1/95 - 9/19/14
 
SHARE

PRINT THIS DATA

[ ← Previous Day ]
WEATHER ALMANAC - 8 FEBRUARY, 2013
[ Next Day → ]
[ °F ]   °C
Weather ElementAverageHighLow
Temperature-2.4 °C-1 °C (1:14 am)-7.8 °C (11:53 pm)
Dewpoint-5.1 °C-2 °C (1:14 am)-10 °C (8:53 pm)
Humidity82.8 %93 % (1:14 am)63 % (5:53 pm)
Barometer1014.9 hPa1028.4 hPa (11:53 pm)1007.8 hPa (4:00 am)
Wind Speed20.1 km/h37 km/h (8:53 am)
Wind Gust53.8 km/h (10:53 am)
Weather ElementAverage
Visibility8.9 km
Wind DirectionWNW (282.5 °)

Weather ElementTotal
Precipitation9.91 mm
Heating Degree Days22.7 (Base 18.3)
Averaged from 40 records on 8 February, 2013
WEATHER CONDITIONS BREAKOUT
WIND DIRECTION BREAKOUT
WEATHER BY HOUR - 8 FEBRUARY, 2013
[ °F ]   °C
Local TimeTemperatureDewpointHumidityBarometerVisibilityWind DirectionWind SpeedGust SpeedPrecipitationEventsConditions
1:14 AM-1 °C-2 °C93 %1008.8 hPa6.4 kmENE (60°)18.5 km/h0.51 mmRainLight Freezing Rain
1:53 AM-1.1 °C-2.2 °C92 %1009.1 hPa4 kmENE (70°)18.5 km/h29.6 km/h1.52 mmSnowLight Snow
2:07 AM-1 °C-2 °C93 %1008.1 hPa2.9 kmENE (70°)16.7 km/h0.51 mmSnowLight Snow
2:14 AM-1 °C-2 °C93 %1008.1 hPa4 kmENE (70°)14.8 km/h0.51 mmSnowLight Snow
2:30 AM-1 °C-2 °C93 %1008.1 hPa2.4 kmNE (50°)11.1 km/h0.76 mmSnowLight Snow
2:42 AM-1 °C-3 °C86 %1008.1 hPa1.9 kmNE (50°)13 km/h1.02 mmSnowLight Snow
2:53 AM-1.1 °C-2.2 °C92 %1008.8 hPa1.6 kmENE (60°)9.3 km/h1.27 mmSnowLight Snow
3:53 AM-1.1 °C-2.2 °C92 %1008.5 hPa1.9 kmNorth (10°)11.1 km/h0.51 mmSnowLight Snow
4:00 AM-1 °C-2 °C93 %1007.8 hPa2.4 kmNorth (10°)11.1 km/h0.25 mmSnowLight Snow
4:16 AM-1 °C-2 °C93 %1007.8 hPa4 kmNorth (360°)13 km/h0.25 mmSnowLight Snow
4:31 AM-1 °C-3 °C86 %1008.1 hPa4.8 kmNorth (350°)13 km/h0.25 mmSnowLight Snow
4:51 AM-1 °C-3 °C86 %1008.1 hPa8 kmNorth (350°)13 km/h0.25 mmSnowLight Snow
4:53 AM-1.1 °C-2.8 °C88 %1009.1 hPa8 kmNorth (350°)11.1 km/h0.25 mmSnowLight Snow
5:53 AM-1.7 °C-2.8 °C92 %1009.8 hPa11.3 kmNNW (340°)20.4 km/hOvercast
6:53 AM-1.7 °C-2.8 °C92 %1010.8 hPa9.7 kmNorth (360°)20.4 km/h0 mmSnowLight Snow
7:31 AM-1 °C-3 °C86 %1010.8 hPa4 kmNorth (350°)22.2 km/h38.9 km/h0.51 mmSnowLight Snow
7:53 AM-1.7 °C-3.3 °C89 %1012.2 hPa2.9 kmNorth (360°)27.8 km/h40.7 km/h0.51 mmSnowLight Snow
8:02 AM-2 °C-3 °C93 %1011.5 hPa1.6 kmNorth (350°)25.9 km/h42.6 km/h0 mmSnowLight Snow
8:26 AM-2 °C-4 °C86 %1011.9 hPa2.4 kmNNW (340°)27.8 km/h42.6 km/h0.25 mmSnowLight Snow
8:35 AM-2 °C-4 °C86 %1012.2 hPa1.9 kmNorth (350°)33.3 km/h42.6 km/h0.25 mmSnowLight Snow
8:47 AM-2 °C-4 °C86 %1012.2 hPa2.4 kmNorth (350°)25.9 km/h44.4 km/h0.25 mmSnowLight Snow
8:53 AM-2.2 °C-3.9 °C88 %1013.5 hPa2.4 kmNorth (360°)37 km/h50.1 km/h0.25 mmSnowLight Snow
9:05 AM-2 °C-4 °C86 %1012.9 hPa3.2 kmNorth (360°)27.8 km/h46.3 km/h0 mmSnowLight Snow
9:21 AM-2 °C-4 °C86 %1013.2 hPa6.4 kmNorth (360°)22.2 km/h42.6 km/h0 mmOvercast
9:53 AM-1.7 °C-5 °C78 %1014.9 hPa14.5 kmNorth (360°)25.9 km/h50.1 km/h0 mmOvercast
10:53 AM-2.8 °C-6.1 °C78 %1016.6 hPa12.9 kmNNW (340°)33.3 km/h53.8 km/hOvercast
11:53 AM-3.3 °C-7.2 °C75 %1018.3 hPa16.1 kmNorth (360°)31.5 km/h51.8 km/hOvercast
12:53 PM-3.3 °C-7.2 °C75 %1019.3 hPa16.1 kmNNW (340°)29.6 km/h50.1 km/hOvercast
1:53 PM-3.9 °C-7.8 °C75 %1020 hPa16.1 kmNNW (340°)27.8 km/h44.4 km/hOvercast
2:53 PM-3.3 °C-7.8 °C71 %1020.7 hPa16.1 kmNNW (340°)31.5 km/h46.3 km/hOvercast
3:53 PM-2.8 °C-7.8 °C69 %1021.3 hPa16.1 kmNorth (360°)29.6 km/h38.9 km/hOvercast
4:53 PM-2.8 °C-7.8 °C69 %1022.7 hPa16.1 kmNorth (360°)20.4 km/h33.3 km/hOvercast
5:29 PM-2 °C-8 °C64 %1022.4 hPa16.1 kmNorth (350°)22.2 km/h35.2 km/hOvercast
5:53 PM-2.8 °C-8.9 °C63 %1023.7 hPa16.1 kmNorth (350°)18.5 km/hMostly Cloudy
6:53 PM-3.9 °C-9.4 °C66 %1024.7 hPa16.1 kmNorth (360°)13 km/hClear
7:53 PM-4.4 °C-9.4 °C69 %1025.7 hPa16.1 kmNorth (360°)18.5 km/h31.5 km/hClear
8:53 PM-5.6 °C-10 °C72 %1026.4 hPa16.1 kmNorth (360°)11.1 km/hClear
9:53 PM-6.1 °C-10 °C74 %1027.4 hPa16.1 kmNNW (340°)9.3 km/hClear
10:53 PM-7.2 °C-10 °C81 %1027.8 hPa16.1 kmNW (310°)5.6 km/hClear
11:53 PM-7.8 °C-10 °C84 %1028.4 hPa16.1 kmNNW (330°)9.3 km/hClear
Hourly data recorded from KARB, located 0 kilometers away from Ann Arbor, Michigan







STORIES FROM OUR PARTNERS